World > North America > United States > Washington > Brem  

Brem, WA Hourly Weather Updates

Feedback E-mail the Weather

Quick Clicks

Brem, WA Weather Maps

°F °C°F °C
Brem Weather Map
UTC Time: 5/22/2024, 10:56
Your Time:

Brem, WA Regional Weather

Expires:202405221100;;654031
ASUS46 KSEW 221020
RWRWA 

WASHINGTON REGIONAL WEATHER ROUNDUP
NATIONAL WEATHER SERVICE SEATTLE WA
300 AM PDT WED MAY 22 2024

NOTE:"FAIR" INDICATES FEW OR NO CLOUDS BELOW 12,000 FEET WITH NO 
SIGNIFICANT WEATHER AND/OR OBSTRUCTIONS TO VISIBILITY.


WAZ507-509-555>559-221100-
SEATTLE, TACOMA, EVERETT, AND VICINITY
  
CITY           SKY/WX    TMP DP  RH WIND       PRES   REMARKS
EVERETT        CLOUDY    48  44  86 E10       29.84R TC   9           
BOEING FIELD   CLOUDY    49  39  68 S8G20     29.84S TC   9           
RENTON         CLOUDY    48  39  71 S9        29.85R TC   9           
SEATAC AIRPORT MOCLDY    47  39  74 SW20G31   29.84R TC   8           
JBLM-MCCHORD   PTCLDY    46  41  81 S15       29.87S TC   8           
PUYALLUP       CLOUDY    46  43  87 VRB6G15   29.89F TC   8           
BREMERTON      CLEAR     45  41  86 SW8       29.82S TC   7           
JBLM-FT LEWIS  CLEAR     46  40  79 S14G21    29.86F TC   8           
TACOMA NARROWS PTCLDY    47  42  83 SW14G30   29.84F TC   8           
$$
 

SKY/WX - Weather  TMP - Temperature  DP - Dew Point  RH - Humidity
WIND - Wind Direction/Speed PRES - Barometric Pressure VSB - Visibility
WCI - Wind Chill Index E13G22 Wind - East Wind 13 mph/Gusts of 22 mph

Trending Headlines

Trending Entertainment Headlines

Brem Radar Loop

Use the map search tool if you want to place a location marker on the radar map...

Brem Quick Facts

National Two Day Weather Forecast


E-mail the Brem Weather Forecast

Voice your opinion or tell us about page issues...